Preview of NWS' New Version of Forecast
This preview is not operational and should not be used for support decisions.

Regional Weather Roundup (RWR)

Issued by National Weather Service (NWS)

                            
000
ASUS46 KSEW 182010
RWRWA 

WASHINGTON REGIONAL WEATHER ROUNDUP
NATIONAL WEATHER SERVICE SEATTLE WA
1200 PM PST FRI JAN 18 2019

NOTE:"FAIR" INDICATES FEW OR NO CLOUDS BELOW 12,000 FEET WITH NO 
SIGNIFICANT WEATHER AND/OR OBSTRUCTIONS TO VISIBILITY.

WAZ507-509-555>559-182100-
SEATTLE, TACOMA, EVERETT, AND VICINITY
  
CITY           SKY/WX    TMP DP  RH WIND       PRES   REMARKS
EVERETT        PTSUNNY   48  38  68 SE17      30.11S                  
BOEING FIELD   CLOUDY    51  39  63 SE10      30.11F                  
RENTON         CLOUDY    52  39  61 SE6       30.11F                  
SEATAC AIRPORT CLOUDY    50  38  63 SE8       30.10F                  
JBLM-MCCHORD   CLOUDY    49  47  91 CALM      30.10F                  
PUYALLUP       FAIR      52  39  62 VRB3      30.10F                  
BREMERTON      CLOUDY    45  43  93 SW7       30.10F                  
JBLM-FT LEWIS  NOT AVBL                                               
TACOMA NARROWS CLOUDY    47  40  76 CALM      30.10F                  
$$
 
WAZ001-503-506-510-514-515-182100-
NORTH INTERIOR
  
CITY           SKY/WX    TMP DP  RH WIND       PRES   REMARKS
BELLINGHAM     CLOUDY    50  39  66 SE15G22   30.06F                  
FRIDAY HARBOR  CLOUDY    47  42  83 SE13      30.06F                  
EASTSOUND      CLOUDY    50  43  76 S12G20    30.03F                  
PORT ANGELES   CLOUDY    48  44  86 VRB5      30.03F                  
EDIZ HOOK      FAIR      47  45  93 N5        30.03F                  
PORT TOWNSEND  FAIR      48  43  81 VRB7G16   30.03F                  
NAS WHIDBEY    CLOUDY    52  39  61 SE22G33   30.09F                  
ARLINGTON      PTSUNNY   51  39  63 S13       30.11F                  
BURLINGTON     MOSUNNY   54  39  58 SE15G23   30.08F                  
$$
 
WAZ020-022-039-040-504-511-512-182100-
SOUTHWEST INTERIOR
  
CITY           SKY/WX    TMP DP  RH WIND       PRES   REMARKS
SHELTON        CLOUDY    47  43  86 N7        30.07F                  
OLYMPIA        CLOUDY    47  42  83 SW6       30.10F                  
CHEHALIS       PTSUNNY   50  45  81 S8        30.09F                  
KELSO          CLOUDY    48  42  80 SE7       30.11F                  
VANCOUVER      CLOUDY    45  40  82 SE5       30.13F                  
SCAPPOOSE, OR  LGT RAIN  47  42  83 S3        30.13F                  
PORTLAND, OR   CLOUDY    47  39  74 SE10      30.14F                  
$$
 
WAZ021-516-517-182100-
WASHINGTON COAST
  
CITY           SKY/WX    TMP DP  RH WIND       PRES   REMARKS
FORKS          CLOUDY    47  29  49 SE15G24   29.99F                  
HOQUIAM        CLOUDY    48  45  89 NE9       30.05F FOG              
ASTORIA, OR    LGT RAIN  47  45  93 SE7       30.04F                  
$$
 
WAZ019-023-024-040-567>569-182100-
CASCADE MOUNTAINS AND COLUMBIA GORGE
  
CITY           SKY/WX    TMP DP  RH WIND       PRES   REMARKS
STAMPEDE PASS  FOG       34  31  88 CALM      30.07F VSB 3/4          
TROUTDALE, OR  CLOUDY    46  39  76 E18       30.14F                  
HOOD RIVER, OR CLOUDY    37  36  93 CALM      30.21F FOG              
THE DALLES, OR CLOUDY    35  34  96 W6        30.23S FOG              
$$

WAZ026-027-041>044-520-521-182100-
EAST SLOPES
  
CITY           SKY/WX    TMP DP  RH WIND       PRES   REMARKS
OMAK           CLOUDY    38  37  97 S7        30.16S                  
WENATCHEE      FOG       33  32  96 E6        30.16S VSB<1/4          
ELLENSBURG     CLOUDY    35  31  85 W3        30.16S FOG              
YAKIMA         CLOUDY    34  32  92 W3        30.20S FOG              
SUNNYSIDE ARPT CLOUDY    47  38  71 SE3       30.20S                  
YAKIMA TC      MOCLDY    32  32 100 CALM      30.16S                  
$$

WAZ028-034-035-182100-
COLUMBIA BASIN
  
CITY           SKY/WX    TMP DP  RH WIND       PRES   REMARKS
EPHRATA        CLOUDY    36  35  96 NE3       30.17R FOG              
MOSES LAKE     CLOUDY    41  36  82 S5        30.17S                  
PASCO          CLOUDY    49  33  54 S7        30.22F                  
RICHLAND ARPT  CLOUDY    50  36  58 CALM      30.21F                  
HERMISTON, OR  CLOUDY    50  34  54 N5        30.21F                  
$$

WAZ036>038-182100-
NORTHEAST WASHINGTON
  
CITY           SKY/WX    TMP DP  RH WIND       PRES   REMARKS
SPOKANE GEIGER PTSUNNY   38  32  79 S12       30.17F                  
SPOKANE FELTS  CLOUDY    41  34  76 S5        30.19F                  
FAIRCHILD AFB  CLOUDY    36  36 100 S8        30.15F                  
COEURDALENE,ID CLOUDY    37  33  85 SE3       30.19S                  
DEER PARK      CLOUDY    35  34  96 S3        30.18S                  
$$

WAZ029>033-182100-
SOUTHEAST WASHINGTON
  
CITY           SKY/WX    TMP DP  RH WIND       PRES   REMARKS
PULLMAN        CLOUDY    42  31  64 SW10      30.21F                  
LEWISTON, ID   CLOUDY    46  36  68 E7        30.22F                  
WALLA WALLA    CLOUDY    50  32  50 S10       30.21F                  
PENDLETON, OR  CLOUDY    47  33  58 SE5       30.20F                  
$$